QPF
0.03 0.00 0.07 0.04 0.01 0.01 0.00 0.00 0.00 0.00 0.00 0.00 0.00 0.00 0.00 0.05 0.04 0.03 0.03 0.01 0.01 0.01 0.01 0.00 0.00 0.00 0.00 0.00 0.00 0.00 0.00 0.00 0.00 0.00 0.00 0.00 0.00 0.00 0.00 0.00 0.00 0.02 0.01
0.00 0.00 0.04 0.04 0.01 0.01 0.00 0.00 0.00 0.00 0.00 0.00 0.00 0.00 0.01 0.05 0.02 0.00 0.00 0.00 0.00 0.00 0.00 0.00 0.00 0.00 0.00 0.00 0.00 0.00 0.00 0.00 0.00 0.00 0.02 0.00 0.00 0.00 0.00 0.01 0.06 0.05 0.02
0.00 0.00 0.00 0.03 0.01 0.00 0.00 0.00 0.00 0.00 0.00 0.00 0.00 0.02 0.01 0.04 0.01 0.00 0.00 0.00 0.00 0.00 0.00 0.00 0.00 0.00 0.00 0.00 0.00 0.00 0.00 0.00 0.00 0.00 0.08 0.01 0.00 0.00 0.00 0.00 0.04 0.03 0.02
0.00 0.00 0.00 0.01 0.01 0.00 0.00 0.00 0.00 0.00 0.00 0.00 0.00 0.05 0.06 0.04 0.01 0.00 0.00 0.00 0.00 0.00 0.00 0.00 0.00 0.00 0.00 0.00 0.00 0.00 0.00 0.00 0.00 0.00 0.02 0.11 0.07 0.05 0.01 0.00 0.00 0.00 0.00
0.00 0.00 0.00 0.00 0.00 0.00 0.00 0.00 0.00 0.00 0.00 0.00 0.00 0.03 0.02 0.01 0.00 0.00 0.00 0.00 0.00 0.00 0.00 0.00 0.00 0.00 0.00 0.00 0.00 0.00 0.00 0.00 0.00 0.00 0.01 0.09 0.10 0.07 0.05 0.00 0.00 0.01 0.00
0.00 0.00 0.00 0.00 0.00 0.00 0.00 0.00 0.00 0.00 0.00 0.00 0.00 0.00 0.00 0.00 0.00 0.00 0.00 0.00 0.00 0.00 0.00 0.00 0.00 0.00 0.00 0.00 0.00 0.00 0.00 0.00 0.00 0.00 0.00 0.00 0.04 0.04 0.03 0.00 0.01 0.00 0.01
0.00 0.00 0.00 0.00 0.00 0.00 0.00 0.00 0.00 0.00 0.00 0.00 0.00 0.00 0.00 0.00 0.00 0.00 0.00 0.00 0.00 0.00 0.00 0.00 0.00 0.00 0.00 0.00 0.00 0.00 0.00 0.00 0.00 0.00 0.00 0.00 0.02 0.06 0.05 0.01 0.00 0.02 0.01
0.00 0.00 0.00 0.00 0.00 0.00 0.00 0.00 0.00 0.00 0.00 0.00 0.00 0.00 0.00 0.00 0.00 0.00 0.00 0.00 0.00 0.00 0.00 0.00 0.00 0.00 0.00 0.00 0.00 0.00 0.00 0.00 0.00 0.00 0.00 0.00 0.01 0.04 0.04 0.02 0.00 0.00 0.00
0.00 0.00 0.00 0.00 0.00 0.00 0.00 0.00 0.00 0.00 0.00 0.00 0.00 0.00 0.00 0.00 0.00 0.00 0.00 0.00 0.00 0.00 0.00 0.00 0.00 0.00 0.00 0.00 0.00 0.00 0.00 0.00 0.00 0.02 0.05 0.02 0.03 0.01 0.00 0.00 0.00 0.00 0.00
0.00 0.00 0.00 0.00 0.00 0.00 0.00 0.00 0.00 0.00 0.00 0.00 0.00 0.00 0.00 0.00 0.00 0.00 0.00 0.00 0.00 0.00 0.00 0.00 0.00 0.01 0.02 0.03 0.05 0.02 0.04 0.05 0.01 0.01 0.06 0.01 0.01 0.00 0.00 0.00 0.00 0.00 0.00
0.00 0.00 0.00 0.00 0.00 0.00 0.00 0.00 0.00 0.00 0.00 0.00 0.00 0.00 0.00 0.00 0.00 0.00 0.00 0.00 0.00 0.01 0.05 0.03 0.01 0.04 0.05 0.06 0.15 0.06 0.16 0.13 0.08 0.15 0.04 0.00 0.00 0.00 0.00 0.00 0.00 0.00 0.00
0.00 0.00 0.00 0.00 0.00 0.00 0.00 0.00 0.00 0.00 0.00 0.00 0.00 0.00 0.00 0.00 0.00 0.00 0.00 0.01 0.01 0.08 0.06 0.02 0.01 0.03 0.01 0.01 0.14 0.08 0.21 0.11 0.17 0.13 0.04 0.01 0.00 0.00 0.00 0.00 0.00 0.00 0.00
0.00 0.00 0.00 0.00 0.00 0.00 0.00 0.00 0.00 0.00 0.00 0.00 0.00 0.00 0.00 0.00 0.00 0.00 0.00 0.00 0.00 0.02 0.03 0.00 0.00 0.00 0.00 0.01 0.09 0.12 0.05 0.11 0.03 0.02 0.00 0.00 0.00 0.00 0.00 0.00 0.00 0.01 0.01
0.00 0.00 0.00 0.00 0.00 0.00 0.00 0.00 0.00 0.00 0.00 0.00 0.00 0.00 0.00 0.00 0.00 0.00 0.00 0.01 0.08 0.01 0.02 0.01 0.00 0.00 0.02 0.00 0.01 0.03 0.02 0.03 0.04 0.01 0.00 0.00 0.00 0.00 0.00 0.00 0.01 0.03 0.03
0.00 0.00 0.00 0.00 0.00 0.00 0.00 0.00 0.00 0.00 0.00 0.00 0.00 0.00 0.00 0.00 0.00 0.00 0.00 0.03 0.04 0.02 0.01 0.00 0.00 0.00 0.00 0.02 0.03 0.04 0.02 0.01 0.00 0.01 0.00 0.00 0.00 0.00 0.00 0.00 0.00 0.01 0.02
0.00 0.00 0.00 0.00 0.00 0.00 0.00 0.00 0.00 0.00 0.00 0.00 0.00 0.00 0.00 0.00 0.00 0.00 0.00 0.02 0.02 0.00 0.00 0.00 0.00 0.00 0.00 0.02 0.01 0.00 0.00 0.01 0.01 0.00 0.00 0.00 0.00 0.00 0.00 0.00 0.00 0.00 0.01
0.00 0.00 0.00 0.00 0.00 0.00 0.00 0.00 0.00 0.00 0.00 0.00 0.00 0.00 0.00 0.00 0.01 0.00 0.02 0.11 0.06 0.00 0.00 0.00 0.02 0.01 0.00 0.01 0.00 0.00 0.00 0.00 0.00 0.00 0.00 0.00 0.00 0.00 0.00 0.00 0.00 0.01 0.02
0.00 0.00 0.00 0.00 0.00 0.00 0.00 0.00 0.00 0.00 0.00 0.00 0.00 0.00 0.00 0.00 0.00 0.00 0.16 0.15 0.03 0.00 0.00 0.00 0.00 0.01 0.01 0.00 0.01 0.00 0.00 0.00 0.00 0.00 0.00 0.00 0.02 0.01 0.00 0.00 0.00 0.00 0.00
0.00 0.00 0.00 0.00 0.00 0.00 0.00 0.00 0.00 0.00 0.00 0.00 0.00 0.00 0.00 0.02 0.01 0.00 0.04 0.11 0.00 0.00 0.00 0.00 0.00 0.03 0.06 0.02 0.00 0.00 0.00 0.00 0.00 0.00 0.00 0.00 0.00 0.00 0.00 0.00 0.00 0.00 0.00
0.00 0.00 0.00 0.00 0.00 0.00 0.00 0.00 0.00 0.00 0.00 0.00 0.00 0.00 0.01 0.02 0.02 0.00 0.00 0.01 0.00 0.00 0.00 0.00 0.00 0.11 0.12 0.05 0.00 0.00 0.00 0.00 0.00 0.00 0.00 0.00 0.00 0.00 0.00 0.01 0.04 0.01 0.00
0.00 0.00 0.00 0.00 0.00 0.00 0.00 0.00 0.00 0.00 0.00 0.00 0.00 0.00 0.01 0.00 0.00 0.00 0.00 0.00 0.00 0.00 0.00 0.00 0.00 0.07 0.08 0.01 0.00 0.00 0.00 0.00 0.00 0.00 0.00 0.00 0.00 0.00 0.00 0.01 0.02 0.02 0.01
0.00 0.00 0.00 0.00 0.00 0.00 0.00 0.00 0.00 0.00 0.00 0.00 0.00 0.00 0.00 0.00 0.00 0.00 0.00 0.00 0.00 0.00 0.01 0.03 0.02 0.02 0.01 0.00 0.02 0.00 0.00 0.00 0.00 0.00 0.00 0.00 0.00 0.00 0.00 0.00 0.00 0.00 0.00
0.00 0.00 0.00 0.00 0.00 0.00 0.00 0.00 0.00 0.00 0.00 0.00 0.00 0.00 0.00 0.00 0.00 0.00 0.00 0.00 0.00 0.01 0.12 0.13 0.08 0.02 0.03 0.00 0.00 0.04 0.04 0.01 0.00 0.00 0.00 0.00 0.00 0.00 0.00 0.00 0.00 0.00 0.00
0.00 0.00 0.00 0.00 0.00 0.00 0.00 0.00 0.00 0.00 0.00 0.00 0.00 0.00 0.00 0.00 0.00 0.00 0.00 0.00 0.00 0.02 0.13 0.21 0.09 0.02 0.05 0.02 0.01 0.00 0.00 0.08 0.03 0.00 0.00 0.01 0.01 0.00 0.00 0.00 0.00 0.00 0.00
0.00 0.00 0.00 0.00 0.00 0.00 0.00 0.00 0.00 0.00 0.00 0.00 0.00 0.00 0.00 0.00 0.00 0.00 0.00 0.00 0.00 0.00 0.02 0.01 0.01 0.01 0.02 0.02 0.01 0.00 0.00 0.02 0.02 0.01 0.00 0.00 0.00 0.00 0.00 0.00 0.00 0.00 0.00
0.00 0.00 0.00 0.00 0.00 0.00 0.00 0.00 0.00 0.00 0.00 0.00 0.00 0.00 0.00 0.00 0.00 0.00 0.00 0.00 0.00 0.00 0.00 0.02 0.03 0.02 0.03 0.04 0.01 0.00 0.00 0.02 0.02 0.05 0.00 0.00 0.00 0.00 0.00 0.00 0.00 0.00 0.00
MSLP
1013.59 1014.21 1014.51 1014.65 1014.88 1015.12 1015.34 1015.50 1015.74 1015.88 1016.01 1016.18 1016.24 1016.33 1016.57 1016.76 1016.73 1016.93 1016.99 1016.99 1017.00 1016.94 1016.97 1016.98 1016.95 1016.91 1016.85 1016.80 1016.75 1016.71 1016.78 1016.71 1016.73 1016.78 1016.83 1016.96 1017.07 1017.17 1017.32 1017.43 1017.53 1017.74 1018.06
1013.23 1014.13 1014.75 1014.81 1015.06 1015.33 1015.56 1015.79 1015.99 1016.17 1016.32 1016.47 1016.58 1016.72 1016.87 1016.94 1017.00 1017.12 1017.16 1017.22 1017.25 1017.26 1017.26 1017.24 1017.16 1017.07 1016.92 1016.82 1016.73 1016.71 1016.76 1016.75 1016.71 1016.79 1016.85 1016.88 1017.10 1017.35 1017.64 1017.72 1017.69 1018.03 1018.31
1013.24 1014.26 1014.74 1015.03 1015.26 1015.53 1015.77 1016.03 1016.26 1016.42 1016.54 1016.71 1016.87 1017.00 1017.12 1017.20 1017.27 1017.39 1017.50 1017.53 1017.56 1017.58 1017.56 1017.46 1017.35 1017.22 1017.08 1016.95 1016.87 1016.83 1016.85 1016.86 1016.85 1016.93 1016.96 1016.96 1017.09 1017.54 1017.77 1017.98 1018.22 1018.42 1018.67
1013.00 1013.92 1014.71 1015.20 1015.49 1015.77 1015.98 1016.20 1016.42 1016.58 1016.75 1016.90 1017.07 1017.28 1017.32 1017.37 1017.52 1017.61 1017.66 1017.71 1017.69 1017.65 1017.55 1017.44 1017.32 1017.23 1017.21 1017.25 1017.22 1017.13 1016.99 1016.81 1016.70 1016.74 1016.95 1017.07 1016.88 1017.04 1017.77 1017.88 1018.09 1018.39 1018.67
1012.97 1013.75 1014.92 1015.34 1015.65 1015.94 1016.22 1016.40 1016.54 1016.72 1016.95 1017.11 1017.20 1017.33 1017.40 1017.53 1017.61 1017.63 1017.63 1017.63 1017.57 1017.43 1017.25 1017.12 1017.05 1017.12 1017.32 1017.51 1017.49 1017.34 1017.12 1016.90 1016.69 1016.75 1016.47 1016.79 1017.31 1017.12 1017.62 1017.76 1017.95 1018.22 1018.43
1012.91 1014.00 1015.22 1015.47 1015.73 1016.02 1016.33 1016.55 1016.68 1016.85 1017.01 1017.11 1017.23 1017.37 1017.53 1017.64 1017.56 1017.50 1017.47 1017.42 1017.32 1017.15 1016.99 1016.90 1016.96 1017.12 1017.27 1017.22 1017.15 1017.22 1017.12 1016.95 1016.91 1016.80 1016.56 1016.61 1017.08 1017.62 1017.87 1017.60 1017.56 1017.93 1018.34
1012.91 1014.19 1015.09 1015.54 1015.84 1016.10 1016.37 1016.63 1016.79 1016.95 1017.08 1017.14 1017.23 1017.37 1017.50 1017.42 1017.38 1017.36 1017.32 1017.27 1017.19 1017.05 1016.99 1017.02 1016.98 1016.98 1016.86 1016.89 1017.09 1017.06 1017.01 1016.98 1016.87 1016.24 1016.38 1016.79 1017.07 1016.75 1017.34 1017.33 1017.41 1017.20 1017.54
1012.65 1013.91 1015.02 1015.65 1015.94 1016.17 1016.37 1016.62 1016.84 1016.95 1017.05 1017.11 1017.17 1017.27 1017.28 1017.19 1017.13 1017.11 1017.13 1016.96 1016.67 1016.54 1016.50 1016.44 1016.58 1016.78 1016.63 1016.56 1016.44 1016.31 1016.49 1016.70 1016.43 1016.08 1016.12 1016.49 1016.56 1016.23 1016.73 1017.08 1016.97 1017.33 1017.73
1012.22 1013.56 1014.66 1015.31 1015.83 1016.15 1016.31 1016.46 1016.66 1016.82 1016.89 1016.97 1017.05 1017.14 1017.00 1016.85 1016.77 1016.78 1016.65 1016.37 1016.26 1016.25 1016.21 1016.06 1016.00 1016.07 1016.21 1016.63 1016.50 1015.90 1015.80 1016.43 1016.25 1015.86 1016.41 1016.44 1017.08 1016.53 1016.40 1016.45 1016.67 1017.06 1017.56
1011.68 1012.77 1013.79 1014.71 1015.41 1015.69 1016.14 1016.35 1016.47 1016.60 1016.70 1016.76 1016.82 1016.75 1016.64 1016.52 1016.49 1016.51 1016.18 1015.96 1015.96 1015.97 1015.84 1015.47 1015.60 1015.55 1015.94 1016.67 1016.30 1016.49 1016.79 1016.39 1016.24 1016.48 1016.27 1016.04 1016.72 1016.19 1016.04 1016.06 1016.35 1016.61 1017.18
1011.50 1012.54 1013.21 1014.01 1014.66 1015.01 1015.46 1016.09 1016.30 1016.35 1016.39 1016.39 1016.48 1016.34 1016.19 1016.02 1015.84 1016.00 1015.74 1015.48 1015.70 1015.63 1015.16 1014.61 1014.74 1014.95 1014.96 1015.88 1016.82 1016.12 1016.51 1014.92 1015.78 1016.30 1015.75 1015.28 1015.69 1015.67 1015.69 1015.71 1015.95 1016.38 1016.78
1011.62 1012.15 1012.53 1012.93 1013.47 1014.42 1014.74 1015.61 1015.68 1015.80 1015.83 1015.81 1015.84 1015.84 1015.54 1015.31 1015.27 1015.16 1015.19 1015.38 1015.35 1015.19 1014.79 1014.16 1014.13 1014.53 1014.75 1015.82 1015.45 1015.31 1014.43 1013.74 1014.35 1015.34 1014.79 1015.21 1014.97 1014.91 1015.02 1015.27 1015.62 1015.98 1016.40
1011.26 1011.84 1012.43 1012.68 1013.32 1013.55 1014.06 1014.56 1014.37 1014.56 1014.59 1014.96 1015.17 1015.35 1015.02 1014.84 1015.00 1015.01 1014.89 1014.93 1014.46 1014.16 1013.91 1013.80 1013.71 1014.35 1014.72 1014.63 1014.90 1014.79 1014.82 1012.70 1013.77 1014.68 1014.28 1014.43 1014.91 1014.61 1014.56 1014.64 1015.13 1015.69 1016.19
1010.88 1011.30 1012.22 1012.46 1013.09 1013.07 1013.56 1013.78 1013.63 1013.72 1014.10 1014.35 1014.70 1015.10 1015.08 1014.83 1014.78 1014.92 1015.01 1014.68 1014.85 1013.70 1014.27 1013.74 1013.31 1013.23 1013.98 1014.14 1014.52 1014.96 1012.06 1013.35 1014.17 1013.97 1013.81 1014.28 1014.01 1013.93 1014.40 1014.70 1014.90 1015.35 1015.90
1010.66 1011.08 1011.67 1012.69 1013.38 1013.46 1013.78 1013.76 1013.87 1013.73 1013.92 1013.83 1014.08 1014.55 1014.80 1014.73 1014.96 1014.82 1014.72 1014.23 1014.82 1014.29 1013.35 1013.37 1013.38 1012.95 1012.92 1013.79 1012.89 1013.53 1012.98 1012.76 1012.82 1013.26 1013.49 1013.69 1013.81 1013.51 1014.26 1014.76 1015.08 1015.32 1015.68
1010.46 1011.08 1011.80 1012.76 1013.63 1013.74 1014.09 1014.01 1014.17 1013.90 1013.79 1013.67 1013.72 1014.37 1014.77 1014.84 1014.80 1014.68 1014.62 1014.77 1014.54 1013.99 1013.19 1012.89 1013.32 1013.37 1013.00 1013.16 1013.20 1012.40 1012.25 1012.38 1012.29 1012.24 1012.63 1013.21 1013.60 1013.76 1014.35 1014.76 1014.96 1015.10 1015.26
1010.32 1010.97 1011.61 1012.56 1013.38 1013.89 1014.08 1014.29 1014.16 1013.89 1013.79 1013.87 1013.72 1013.94 1014.52 1014.78 1014.88 1014.60 1014.65 1014.87 1013.71 1014.14 1013.61 1013.52 1014.10 1013.78 1013.67 1012.93 1012.47 1012.06 1011.52 1011.11 1011.56 1011.83 1012.44 1013.03 1013.70 1014.06 1014.55 1014.81 1014.90 1014.92 1015.08
1010.06 1010.81 1011.45 1012.00 1013.01 1013.74 1013.95 1013.99 1013.72 1013.39 1013.62 1013.94 1013.84 1014.14 1014.18 1014.28 1014.20 1014.16 1015.26 1015.74 1014.08 1014.96 1014.02 1014.17 1014.16 1014.36 1014.82 1013.70 1012.72 1012.25 1011.51 1011.39 1011.80 1012.11 1012.43 1013.19 1013.56 1014.02 1014.49 1014.66 1014.89 1015.04 1015.09
1009.97 1010.81 1011.44 1011.89 1012.68 1013.44 1013.68 1013.59 1013.46 1013.14 1013.21 1013.57 1013.98 1014.11 1013.94 1014.22 1014.36 1013.82 1014.66 1014.94 1014.29 1014.80 1013.83 1014.34 1014.74 1015.62 1015.08 1014.17 1013.39 1011.88 1011.47 1011.46 1011.72 1011.98 1012.20 1012.53 1013.16 1013.69 1014.04 1014.74 1014.91 1015.02 1015.07
1009.98 1010.81 1011.38 1011.87 1012.51 1013.22 1013.56 1013.54 1013.31 1013.07 1013.10 1013.48 1013.47 1013.56 1013.94 1014.48 1013.50 1014.18 1013.90 1014.25 1014.41 1014.20 1014.35 1014.58 1014.42 1014.96 1015.70 1014.67 1013.51 1012.20 1011.70 1011.28 1011.65 1012.18 1012.53 1012.62 1012.81 1013.21 1013.89 1014.53 1014.77 1014.89 1015.04
1009.86 1010.80 1011.39 1011.96 1012.46 1012.96 1013.33 1013.52 1013.35 1012.95 1012.82 1013.22 1012.99 1013.06 1013.88 1013.52 1013.42 1013.55 1013.47 1014.27 1013.64 1013.94 1014.23 1014.34 1014.46 1014.78 1014.48 1013.96 1013.57 1012.64 1011.90 1011.45 1011.73 1012.07 1012.40 1012.80 1013.10 1013.34 1013.73 1014.11 1014.47 1014.74 1014.80
1009.61 1010.59 1011.29 1011.76 1012.28 1012.71 1012.92 1012.86 1012.71 1012.54 1012.28 1012.42 1012.53 1012.49 1012.74 1012.89 1012.83 1012.90 1013.55 1013.75 1013.69 1013.83 1014.52 1014.49 1014.26 1014.51 1014.32 1014.06 1014.13 1013.47 1012.44 1011.92 1011.82 1012.04 1012.39 1012.84 1013.28 1013.56 1014.05 1014.36 1014.57 1014.68 1014.62
1009.01 1010.00 1010.84 1011.42 1011.95 1012.43 1012.48 1012.54 1012.49 1012.58 1012.40 1012.45 1012.50 1012.65 1012.59 1012.61 1012.71 1013.24 1013.50 1013.55 1013.88 1013.95 1014.35 1014.56 1014.28 1013.63 1013.85 1013.63 1013.80 1013.55 1012.91 1012.65 1012.27 1012.02 1012.51 1012.82 1013.36 1013.79 1014.30 1014.31 1014.48 1014.82 1014.71
1008.33 1009.31 1010.20 1010.99 1011.47 1012.04 1012.32 1012.48 1012.39 1012.63 1012.58 1012.39 1012.31 1012.15 1012.26 1012.35 1012.23 1012.51 1012.72 1013.02 1013.46 1013.61 1014.04 1014.03 1014.19 1013.30 1013.61 1013.70 1013.40 1012.88 1012.75 1012.64 1012.87 1012.65 1012.54 1013.08 1013.54 1014.01 1014.39 1014.34 1014.52 1014.67 1014.63
1007.59 1008.49 1009.38 1010.36 1011.03 1011.44 1011.95 1012.18 1012.13 1012.35 1012.29 1012.14 1011.90 1012.27 1012.11 1012.28 1012.01 1012.02 1012.13 1012.46 1012.90 1012.99 1013.02 1012.79 1012.93 1013.12 1013.43 1013.56 1013.22 1012.87 1012.44 1012.39 1012.20 1011.83 1012.06 1013.08 1014.06 1014.14 1014.39 1014.47 1014.09 1014.36 1014.49
1006.86 1007.58 1008.38 1009.43 1010.33 1010.99 1011.42 1011.85 1012.11 1012.15 1012.25 1012.17 1012.13 1012.03 1011.90 1011.80 1011.61 1011.72 1011.79 1012.08 1012.44 1012.87 1013.00 1013.08 1013.22 1013.47 1013.40 1013.46 1013.22 1012.87 1012.58 1012.52 1012.04 1011.39 1011.32 1012.71 1013.23 1014.09 1014.27 1014.33 1014.18 1014.27 1014.48
Thickness
5788 5785 5782 5782 5780 5777 5775 5773 5772 5771 5770 5769 5769 5768 5767 5765 5765 5763 5762 5762 5762 5763 5762 5762 5762 5762 5762 5763 5763 5762 5762 5762 5762 5762 5761 5760 5759 5757 5756 5754 5753 5751 5749
5794 5787 5782 5782 5780 5777 5775 5774 5773 5772 5770 5769 5768 5768 5766 5766 5765 5764 5764 5763 5763 5763 5762 5762 5762 5763 5763 5764 5764 5764 5763 5763 5763 5762 5762 5762 5760 5757 5754 5753 5751 5749 5747
5796 5787 5783 5782 5781 5778 5776 5774 5773 5773 5772 5770 5769 5768 5768 5767 5767 5766 5765 5764 5764 5764 5763 5763 5763 5764 5764 5764 5764 5763 5763 5763 5763 5762 5762 5761 5758 5754 5753 5752 5749 5747 5744
5799 5791 5785 5782 5781 5779 5777 5776 5776 5775 5773 5771 5770 5769 5769 5769 5768 5768 5767 5766 5766 5765 5765 5766 5766 5766 5765 5764 5764 5764 5764 5765 5765 5763 5761 5760 5761 5762 5754 5753 5751 5748 5745
5802 5794 5785 5783 5782 5781 5778 5777 5777 5776 5774 5773 5772 5772 5772 5771 5772 5772 5771 5770 5770 5770 5770 5770 5770 5769 5767 5765 5764 5764 5764 5765 5766 5764 5767 5763 5762 5760 5754 5753 5753 5750 5746
5805 5795 5785 5784 5784 5783 5780 5779 5778 5777 5777 5776 5776 5775 5774 5775 5775 5775 5775 5774 5774 5774 5775 5775 5775 5773 5771 5770 5768 5765 5764 5766 5766 5765 5766 5763 5757 5752 5750 5755 5754 5746 5744
5808 5796 5789 5786 5785 5784 5783 5781 5780 5780 5779 5779 5779 5778 5778 5779 5779 5778 5778 5777 5776 5776 5776 5775 5775 5775 5775 5773 5768 5766 5767 5768 5769 5773 5768 5761 5761 5763 5759 5756 5756 5753 5748
5812 5801 5793 5788 5787 5787 5786 5785 5783 5782 5782 5782 5782 5782 5782 5782 5782 5781 5779 5781 5785 5785 5785 5784 5781 5776 5776 5776 5775 5776 5774 5771 5772 5774 5770 5761 5763 5771 5764 5758 5759 5754 5749
5818 5807 5798 5793 5790 5790 5789 5789 5788 5788 5787 5786 5786 5785 5786 5787 5787 5785 5786 5789 5790 5790 5789 5790 5789 5786 5784 5778 5777 5785 5783 5773 5779 5779 5770 5766 5760 5768 5769 5765 5762 5757 5751
5826 5816 5807 5801 5796 5795 5793 5792 5792 5792 5792 5791 5791 5791 5791 5792 5791 5790 5794 5797 5795 5794 5795 5798 5793 5792 5787 5775 5779 5775 5772 5772 5774 5771 5770 5773 5766 5774 5773 5771 5765 5760 5752
5827 5820 5815 5809 5805 5803 5801 5797 5796 5796 5796 5797 5796 5796 5797 5798 5798 5797 5801 5804 5801 5797 5802 5807 5802 5800 5797 5784 5771 5774 5769 5788 5778 5764 5775 5781 5776 5779 5776 5773 5767 5761 5755
5822 5823 5824 5820 5817 5810 5809 5804 5804 5803 5803 5803 5803 5803 5805 5806 5806 5807 5807 5805 5803 5801 5804 5813 5812 5805 5801 5780 5780 5784 5796 5800 5788 5787 5788 5788 5786 5785 5782 5776 5769 5763 5757
5829 5828 5826 5825 5820 5819 5816 5814 5816 5815 5815 5812 5810 5809 5811 5813 5811 5810 5810 5806 5816 5818 5818 5814 5819 5807 5797 5793 5788 5791 5787 5773 5805 5792 5793 5792 5787 5788 5786 5781 5772 5763 5758
5832 5833 5829 5830 5824 5824 5821 5821 5823 5823 5821 5820 5817 5813 5814 5816 5816 5811 5806 5809 5808 5820 5818 5814 5820 5816 5807 5800 5800 5789 5821 5810 5801 5797 5800 5795 5797 5796 5787 5780 5774 5766 5759
5833 5835 5835 5829 5824 5823 5822 5822 5823 5825 5824 5826 5824 5820 5818 5818 5816 5815 5813 5820 5797 5816 5827 5815 5817 5819 5818 5810 5818 5812 5816 5816 5808 5807 5805 5801 5799 5798 5788 5779 5772 5767 5761
5838 5836 5835 5829 5823 5822 5821 5822 5821 5825 5826 5828 5829 5823 5819 5817 5816 5817 5818 5814 5815 5820 5821 5825 5820 5819 5823 5820 5816 5820 5821 5817 5818 5820 5814 5805 5799 5796 5787 5777 5773 5768 5764
5841 5840 5836 5831 5826 5823 5823 5821 5823 5826 5828 5828 5829 5826 5819 5814 5811 5814 5818 5822 5831 5822 5823 5822 5809 5816 5819 5823 5826 5825 5828 5831 5828 5822 5816 5808 5801 5793 5785 5779 5774 5771 5765
5846 5840 5839 5838 5831 5825 5825 5824 5827 5830 5830 5828 5828 5824 5820 5821 5819 5819 5814 5819 5828 5819 5818 5815 5814 5815 5811 5816 5821 5827 5830 5830 5826 5821 5817 5809 5802 5793 5785 5780 5773 5769 5765
5848 5843 5839 5839 5833 5828 5828 5828 5830 5832 5832 5830 5826 5823 5826 5825 5821 5825 5819 5819 5826 5817 5820 5811 5807 5803 5806 5818 5817 5831 5828 5829 5828 5822 5818 5809 5802 5796 5790 5780 5774 5768 5764
5850 5845 5842 5839 5835 5831 5830 5830 5832 5834 5833 5829 5828 5825 5827 5825 5830 5822 5822 5820 5815 5821 5817 5812 5813 5809 5797 5805 5814 5823 5825 5832 5828 5820 5816 5811 5805 5799 5790 5781 5774 5768 5763
5851 5844 5840 5837 5835 5832 5829 5826 5827 5828 5833 5830 5831 5828 5825 5829 5831 5827 5823 5816 5820 5820 5817 5813 5813 5810 5812 5813 5809 5816 5823 5829 5825 5819 5816 5810 5805 5799 5789 5781 5775 5770 5765
5850 5845 5841 5839 5836 5833 5832 5833 5834 5835 5838 5837 5834 5833 5829 5830 5832 5831 5827 5821 5823 5822 5820 5817 5810 5804 5807 5811 5800 5807 5801 5811 5817 5817 5813 5806 5800 5794 5786 5780 5774 5769 5766
5852 5848 5843 5842 5839 5836 5836 5836 5835 5834 5835 5833 5832 5831 5832 5831 5830 5827 5825 5822 5821 5821 5817 5814 5815 5815 5809 5814 5812 5803 5793 5789 5801 5813 5810 5807 5798 5792 5784 5780 5774 5767 5763
5856 5854 5849 5844 5842 5839 5837 5832 5829 5823 5821 5828 5831 5834 5834 5833 5835 5833 5831 5825 5822 5822 5814 5797 5813 5820 5814 5804 5810 5815 5812 5807 5789 5788 5803 5801 5797 5788 5781 5777 5773 5767 5762
5863 5858 5853 5847 5843 5841 5837 5834 5831 5826 5829 5832 5835 5830 5833 5832 5834 5835 5833 5830 5824 5825 5824 5825 5824 5820 5814 5806 5806 5807 5809 5808 5807 5799 5790 5787 5786 5784 5780 5775 5772 5766 5761
5866 5863 5860 5851 5845 5842 5839 5835 5830 5827 5825 5826 5828 5828 5831 5834 5836 5835 5834 5833 5830 5825 5821 5819 5816 5812 5811 5808 5808 5808 5805 5801 5799 5765 5798 5790 5786 5778 5777 5773 5770 5763 5758